Weather History for Flora, IL

Change the Weather History Date:

Thursday, November 8, 2012

  Actual Average (KEVV) Record (KEVV)
Temperature  
Mean Temperature 43 °F 50 °F  
Max Temperature 54 °F 60 °F 79 °F (1999)
Min Temperature 32 °F 39 °F 19 °F (1971)
Degree Days  
Heating Degree Days 22 15  
Month to date heating degree days 112  
Since 1 July heating degree days 415  
Cooling Degree Days 0 0  
Month to date cooling degree days 0  
Year to date cooling degree days 1395  
Moisture  
Dew Point 39 °F    
Average Humidity 83    
Maximum Humidity 100    
Minimum Humidity 58    
Precipitation  
Precipitation 0.00 in 0.13 in 1.32 in (2000)
Month to date precipitation 1.05  
Year to date precipitation 38.27  
Snow  
Snow 0.00 in 0.00 in T in (1995)
Month to date snowfall 0.0  
Since 1 July snowfall 0.2  
Since 1 September snowfall 0.2  
Snow Depth -    
Sea Level Pressure  
Sea Level Pressure 30.20 in    
Wind  
Wind Speed 3 mph (South)    
Max Wind Speed 9 mph    
Max Gust Speed -    
Visibility 7 miles    
Events Fog    
T = Trace of Precipitation, MM = Missing Value Source: NWS Daily Summary

Daily Weather History Graph

Daily Weather History Graph

Search for Another Location

Airport:

Trip Planner

Search our weather history database for the weather conditions in past years. The results will help you decide how hot, cold, wet, or windy it might be!

Date:

Astronomy

Nov. 08, 2012 Rise Set
Actual Time 6:28 AM CST 4:45 PM CST
Civil Twilight 6:00 AM CST 5:13 PM CST
Nautical Twilight 5:29 AM CST 5:45 PM CST
Astronomical Twilight 4:57 AM CST 6:16 PM CST
Moon 12:27 AM CST (11/8) 1:23 PM CST (11/8)
Length of Visible Light 11h 13m
Length of Day
10h 17m
Waning Crescent, 32% of the Moon is Illuminated
Nov 8
Waning Crescent
Nov 13
New
Nov 20
First Quarter
Nov 28
Full
Dec 6
Last Quarter

Hourly Weather History & Observations

Time (CST) Temp. Windchill Dew Point Humidity Pressure Visibility Wind Dir Wind Speed Gust Speed Precip Events Conditions
12:15 AM 44.8 °F 43.3 °F 41.2 °F 87% 30.19 in 7.0 mi NW 3.5 mph - N/A   Overcast
12:35 AM 44.8 °F 42.4 °F 41.2 °F 87% 30.19 in 7.0 mi NW 4.6 mph - N/A   Overcast
12:55 AM 44.8 °F 43.3 °F 41.2 °F 87% 30.20 in 7.0 mi NNW 3.5 mph - N/A   Overcast
1:15 AM 44.6 °F 43.1 °F 41.0 °F 87% 30.20 in 7.0 mi NW 3.5 mph - N/A   Overcast
1:35 AM 44.8 °F 43.3 °F 41.2 °F 87% 30.21 in 7.0 mi WNW 3.5 mph - N/A   Overcast
1:55 AM 44.6 °F 43.1 °F 41.2 °F 88% 30.20 in 7.0 mi WNW 3.5 mph - N/A   Overcast
2:15 AM 44.8 °F - 40.3 °F 84% 30.20 in 7.0 mi Calm Calm - N/A   Overcast
2:35 AM 44.6 °F - 41.5 °F 89% 30.21 in 5.0 mi Calm Calm - N/A   Overcast
2:55 AM 43.9 °F 42.3 °F 40.8 °F 89% 30.20 in 5.0 mi East 3.5 mph - N/A   Scattered Clouds
3:15 AM 40.8 °F - 39.6 °F 95% 30.21 in 4.0 mi Calm Calm - N/A   Clear
3:35 AM 40.3 °F - 39.4 °F 97% 30.21 in 4.0 mi Calm Calm - N/A   Clear
3:55 AM 37.6 °F - 37.2 °F 99% 30.21 in 2.5 mi Calm Calm - N/A   Clear
4:15 AM 37.0 °F - 36.7 °F 99% 30.21 in 2.5 mi Calm Calm - N/A   Clear
4:35 AM 37.6 °F - 37.4 °F 99% 30.22 in 2.0 mi Calm Calm - N/A   Clear
4:55 AM 35.6 °F 32.8 °F 35.6 °F 100% 30.22 in 0.8 mi SW 3.5 mph - N/A   Mist
5:15 AM 35.6 °F - 35.6 °F 100% 30.22 in 1.8 mi Calm Calm - N/A   Mist
5:35 AM 35.6 °F - 35.6 °F 100% 30.23 in 1.2 mi Calm Calm - N/A   Mist
5:55 AM 35.4 °F - 35.4 °F 100% 30.23 in 1.5 mi Calm Calm - N/A   Mist
6:15 AM 34.3 °F - 34.3 °F 100% 30.23 in 0.2 mi Calm Calm - N/A Fog Fog
6:35 AM 32.0 °F - 32.0 °F 100% 30.24 in 0.2 mi Calm Calm - N/A Fog Fog
6:55 AM 32.4 °F - 32.4 °F 100% 30.24 in 0.2 mi Calm Calm - N/A Fog Fog
7:15 AM 34.7 °F - 34.7 °F 100% 30.25 in 4.0 mi Calm Calm - N/A   Scattered Clouds
7:35 AM 36.0 °F - 36.0 °F 100% 30.25 in 2.5 mi Calm Calm - N/A   Clear
7:55 AM 37.9 °F - 37.9 °F 100% 30.26 in 3.0 mi Calm Calm - N/A   Clear
8:15 AM 39.7 °F - 39.7 °F 100% 30.27 in 3.0 mi Calm Calm - N/A   Clear
8:34 AM 42.8 °F - 42.8 °F 100% 30.27 in 4.0 mi Calm Calm - N/A   Clear
8:35 AM 42.1 °F - 41.9 °F 99% 30.27 in 4.0 mi Calm Calm - N/A   Clear
8:55 AM 43.9 °F - 41.7 °F 92% 30.27 in 5.0 mi Calm Calm - N/A   Clear
9:15 AM 46.6 °F - 40.5 °F 79% 30.27 in 7.0 mi SSW 3.5 mph - N/A   Clear
9:35 AM 48.4 °F - 40.3 °F 74% 30.27 in 10.0 mi South 3.5 mph - N/A   Clear
9:55 AM 49.3 °F - 39.0 °F 68% 30.27 in 10.0 mi South 3.5 mph - N/A   Clear
10:15 AM 50.0 °F - 39.2 °F 66% 30.27 in 10.0 mi South 3.5 mph - N/A   Scattered Clouds
10:35 AM 50.7 °F - 39.6 °F 66% 30.26 in 10.0 mi South 5.8 mph - N/A   Scattered Clouds
10:55 AM 51.4 °F - 39.9 °F 65% 30.25 in 10.0 mi SSE 6.9 mph - N/A   Scattered Clouds
11:15 AM 50.5 °F - 38.7 °F 64% 30.24 in 10.0 mi SW 5.8 mph - N/A   Scattered Clouds
11:35 AM 52.7 °F - 40.6 °F 64% 30.24 in 10.0 mi SSW 9.2 mph - N/A   Scattered Clouds
11:55 AM 51.8 °F - 39.2 °F 62% 30.23 in 10.0 mi SW 6.9 mph - N/A   Scattered Clouds
12:15 PM 51.1 °F - 39.0 °F 63% 30.22 in 10.0 mi WSW 5.8 mph - N/A   Scattered Clouds
12:35 PM 51.4 °F - 39.4 °F 63% 30.21 in 10.0 mi SW 4.6 mph - N/A   Scattered Clouds
12:55 PM 53.1 °F - 40.3 °F 62% 30.20 in 10.0 mi SSW 4.6 mph - N/A   Scattered Clouds
1:15 PM 54.0 °F - 40.5 °F 60% 30.20 in 10.0 mi South 8.1 mph - N/A   Scattered Clouds
1:54 PM 53.6 °F - 39.2 °F 58% 30.18 in 10.0 mi SSE 9.2 mph - N/A   Clear
1:55 PM 54.1 °F - 40.5 °F 60% 30.19 in 10.0 mi SE 9.2 mph - N/A   Clear
2:15 PM 54.1 °F - 39.7 °F 58% 30.18 in 10.0 mi South 4.6 mph - N/A   Clear
2:35 PM 54.5 °F - 40.3 °F 59% 30.17 in 10.0 mi South 6.9 mph - N/A   Clear
2:55 PM 54.7 °F - 40.6 °F 59% 30.17 in 10.0 mi SSE 5.8 mph - N/A   Clear
3:15 PM 54.5 °F - 40.5 °F 59% 30.17 in 10.0 mi South 5.8 mph - N/A   Clear
3:35 PM 53.8 °F - 40.3 °F 60% 30.17 in 10.0 mi SSE 5.8 mph - N/A   Clear
3:55 PM 53.1 °F - 40.6 °F 63% 30.17 in 10.0 mi SSE 9.2 mph - N/A   Clear
4:15 PM 52.0 °F - 41.0 °F 66% 30.17 in 10.0 mi SSE 6.9 mph - N/A   Clear
4:35 PM 49.8 °F - 41.2 °F 72% 30.16 in 10.0 mi SSE 5.8 mph - N/A   Clear
4:55 PM 47.7 °F - 40.6 °F 77% 30.16 in 10.0 mi SSE 5.8 mph - N/A   Clear
5:15 PM 47.5 °F - 40.8 °F 78% 30.16 in 10.0 mi SSE 5.8 mph - N/A   Clear
5:35 PM 43.3 °F 39.9 °F 38.1 °F 82% 30.16 in 10.0 mi SE 5.8 mph - N/A   Clear
5:55 PM 42.1 °F 38.4 °F 37.6 °F 84% 30.16 in 10.0 mi SE 5.8 mph - N/A   Clear
6:15 PM 41.7 °F 38.8 °F 38.1 °F 87% 30.17 in 10.0 mi SE 4.6 mph - N/A   Clear
6:35 PM 42.1 °F 40.2 °F 37.4 °F 83% 30.17 in 10.0 mi SSE 3.5 mph - N/A   Clear
6:55 PM 44.6 °F 42.2 °F 38.7 °F 80% 30.17 in 7.0 mi SSE 4.6 mph - N/A   Clear
7:15 PM 41.7 °F 38.0 °F 37.4 °F 85% 30.17 in 10.0 mi SSE 5.8 mph - N/A   Clear
7:35 PM 40.6 °F 36.7 °F 36.7 °F 86% 30.16 in 10.0 mi SSE 5.8 mph - N/A   Clear
7:55 PM 39.9 °F 36.7 °F 37.4 °F 91% 30.16 in 10.0 mi SSE 4.6 mph - N/A   Clear
8:15 PM 40.5 °F 36.5 °F 37.8 °F 90% 30.15 in 10.0 mi SSE 5.8 mph - N/A   Clear
8:35 PM 40.6 °F 36.0 °F 37.0 °F 87% 30.14 in 10.0 mi SSE 6.9 mph - N/A   Clear
8:55 PM 40.8 °F 36.9 °F 37.9 °F 89% 30.14 in 10.0 mi SSE 5.8 mph - N/A   Clear
9:15 PM 40.5 °F 35.8 °F 37.4 °F 89% 30.14 in 10.0 mi SSE 6.9 mph - N/A   Clear
9:35 PM 40.3 °F 37.1 °F 37.4 °F 89% 30.14 in 10.0 mi South 4.6 mph - N/A   Clear
9:55 PM 41.0 °F 38.0 °F 37.8 °F 88% 30.14 in 10.0 mi SSE 4.6 mph - N/A   Clear
10:15 PM 38.8 °F 33.8 °F 36.5 °F 91% 30.14 in 7.0 mi SSE 6.9 mph - N/A   Clear
10:35 PM 38.8 °F 34.6 °F 37.4 °F 95% 30.14 in 7.0 mi SSE 5.8 mph - N/A   Clear
10:55 PM 39.0 °F 35.7 °F 37.4 °F 94% 30.14 in 7.0 mi SSE 4.6 mph - N/A   Clear
11:15 PM 39.0 °F 34.8 °F 36.9 °F 92% 30.13 in 7.0 mi SSE 5.8 mph - N/A   Clear
11:35 PM 37.9 °F 33.5 °F 36.3 °F 94% 30.13 in 7.0 mi SSE 5.8 mph - N/A   Clear
11:55 PM 38.3 °F 34.8 °F 37.0 °F 95% 30.13 in 7.0 mi SSE 4.6 mph - N/A   Clear